GEFSNGP_850_meantemp_192.txt.gz
Temperature
29 30 30 30 30 30 30 30 30 30 30 30 30 30 30 29 28 28 27 26 25 24 23 22 22 21 21 21 20 20 19 19 18 18 18 18 18 18 18 18 17 17 17 17
27 29 30 30 30 31 31 31 31 30 30 31 30 30 29 29 28 27 26 25 24 23 22 22 21 21 20 20 19 19 19 18 18 18 18 18 17 17 17 17 17 17 17 17
27 28 29 28 30 30 30 31 31 30 30 30 30 29 28 28 27 26 25 24 23 22 21 21 20 20 20 19 19 18 18 18 18 18 17 17 17 17 17 17 17 17 17 16
26 27 26 29 31 31 31 31 31 30 30 30 29 28 27 27 26 26 25 24 23 22 21 20 20 19 19 18 18 18 18 17 17 17 17 17 16 16 16 16 16 16 16 16
25 26 27 29 30 31 30 29 30 29 29 29 29 28 27 26 25 24 23 23 22 21 20 20 19 19 18 18 18 18 17 17 17 17 17 16 16 16 16 16 15 15 15 15
25 25 25 28 30 31 30 28 28 28 27 27 28 27 26 25 24 23 22 22 21 20 20 19 19 18 18 18 17 17 17 17 17 16 16 16 16 15 15 15 15 15 15 14
24 24 26 28 30 30 27 26 27 27 27 27 27 26 25 24 23 22 21 20 20 19 19 18 18 18 18 17 17 17 16 16 16 16 16 15 15 15 15 15 15 14 14 14
24 24 24 27 28 27 26 26 26 26 26 25 24 24 23 22 21 21 20 19 19 18 18 18 17 17 17 17 16 16 16 16 15 15 15 15 15 14 14 14 14 14 14 13
23 24 24 24 24 24 25 25 25 25 25 24 23 23 22 21 20 20 19 18 18 18 17 17 17 17 16 16 16 16 15 15 15 15 15 14 14 14 14 14 13 13 13 13
23 23 24 23 23 23 24 24 23 24 23 23 22 22 21 20 19 19 18 18 17 17 17 16 16 16 16 16 15 15 15 14 14 14 14 14 14 14 13 13 13 13 12 12
22 23 23 23 22 22 22 22 23 22 22 22 21 21 20 19 18 18 18 17 17 16 16 15 15 15 15 15 15 15 14 14 14 14 14 14 14 13 13 13 13 13 12 12
22 22 22 21 21 21 21 21 21 21 21 20 20 20 19 18 18 17 17 17 16 16 15 15 15 15 15 15 15 14 14 14 13 13 13 13 13 13 13 13 12 12 12 12
21 21 21 20 20 20 20 20 20 20 19 19 19 18 18 17 17 17 16 16 16 15 15 15 14 14 14 14 14 14 14 14 13 13 13 13 13 13 12 12 12 12 11 11
20 20 19 19 19 19 19 19 19 18 18 18 18 17 17 17 16 16 16 15 15 15 14 14 14 14 14 14 14 14 14 13 13 13 13 13 12 12 12 12 11 11 11 11
19 19 19 19 18 18 18 18 18 17 17 17 17 17 17 16 16 16 15 15 15 14 14 14 14 13 13 13 13 13 13 13 13 13 13 13 12 12 12 11 11 11 10 10
18 18 18 18 18 18 18 18 17 17 16 16 16 16 16 16 15 15 15 15 14 14 14 13 13 13 13 13 13 13 13 13 13 13 13 12 12 12 12 11 11 10 10 10
18 18 18 18 18 17 17 17 17 16 16 16 15 15 15 15 15 15 14 14 14 14 13 13 13 13 13 13 13 13 13 13 13 13 12 12 12 12 11 11 10 10 10 10
17 17 17 17 17 17 17 16 16 16 15 15 15 15 15 14 14 14 14 14 13 13 13 13 13 13 13 13 13 13 13 13 12 12 12 12 12 12 11 11 11 10 10 10
17 17 17 16 16 16 16 16 15 15 15 14 14 14 14 14 14 14 13 13 13 13 12 12 12 12 12 13 13 13 13 12 12 12 12 12 12 11 11 11 11 10 10 9
16 16 16 16 16 15 15 15 15 14 14 14 14 14 13 13 13 13 13 13 13 13 12 12 12 12 12 12 12 12 12 12 12 12 12 11 11 11 11 11 11 10 10 9
15 15 15 15 15 15 14 14 14 14 14 13 13 13 13 13 13 13 13 12 12 12 12 12 12 12 12 12 12 12 12 12 12 12 11 11 11 11 10 10 10 10 9 9
14 14 14 14 14 14 14 13 13 13 13 13 13 13 13 13 12 12 12 12 12 12 12 12 12 12 12 12 12 12 12 12 12 11 11 11 11 10 10 10 10 9 9 9
13 13 13 13 13 13 13 13 13 13 13 13 12 12 12 12 12 12 12 12 12 12 12 12 12 12 12 11 11 12 12 11 11 11 11 11 10 10 10 10 10 9 9 9
13 13 13 13 12 12 12 12 12 12 12 12 12 12 12 12 12 12 12 11 12 11 11 11 11 11 11 11 11 11 11 11 11 11 11 10 10 10 10 10 9 9 9 9
12 12 12 12 12 12 12 12 12 12 12 12 12 12 12 12 12 11 11 11 11 11 11 11 11 11 11 11 11 11 11 11 11 10 10 10 10 10 10 9 9 9 9 8
11 11 12 12 12 12 12 12 12 12 12 12 12 12 11 11 11 11 11 11 11 11 10 10 11 11 11 11 11 11 11 10 10 10 10 10 10 9 9 9 9 8 8 8
11 11 11 11 12 12 12 12 12 11 11 11 11 11 11 11 11 11 11 11 10 10 10 10 10 10 10 10 10 10 10 10 10 10 9 9 9 9 9 9 8 8 8 8

GEFSNGP_850_meantemp_198.txt.gz
Temperature
21 23 24 25 25 24 23 21 21 22 22 22 22 22 23 23 23 23 23 23 23 22 22 22 22 21 21 21 20 20 20 19 19 19 18 18 18 18 17 17 17 17 16 16
22 24 25 25 25 25 25 24 23 23 22 22 22 23 23 23 23 22 22 22 22 22 22 22 22 21 21 20 20 20 19 19 19 18 18 18 17 17 17 17 16 16 16 16
20 22 23 23 24 25 25 24 23 23 22 22 21 22 22 22 22 22 22 22 22 22 22 22 21 21 20 20 19 19 19 18 18 18 18 17 17 17 16 16 16 16 16 16
18 21 22 21 22 24 24 24 23 22 22 22 22 22 23 23 23 23 22 22 22 21 21 21 20 20 20 19 19 19 18 18 17 17 17 17 16 16 16 16 16 15 15 15
17 19 21 22 23 23 23 22 22 22 22 22 22 22 21 23 24 23 23 22 22 21 21 20 20 19 19 19 18 18 18 17 17 17 16 16 16 16 15 15 15 15 15 14
17 19 20 21 22 24 22 20 21 21 21 21 21 19 20 22 22 22 22 22 21 21 20 20 19 19 19 18 18 18 17 17 17 16 16 16 15 15 15 15 15 14 14 14
17 19 19 20 22 23 21 20 21 22 22 22 21 21 22 22 22 22 21 21 21 20 20 19 19 18 18 18 18 17 17 17 16 16 16 16 15 15 15 15 14 14 14 13
16 18 18 20 20 20 19 21 22 23 23 23 23 22 22 22 21 21 21 20 20 19 19 18 18 18 18 17 17 17 16 16 16 15 15 15 15 14 14 14 14 14 13 13
16 16 18 20 20 20 21 21 22 22 23 23 22 21 21 21 21 20 20 19 19 19 18 17 17 17 17 17 16 16 16 15 15 15 15 14 14 14 14 14 14 13 13 13
16 17 18 20 20 21 21 22 22 22 22 22 21 20 20 20 20 19 19 19 18 18 18 17 17 17 17 16 16 16 15 15 15 15 14 14 14 14 13 13 13 13 13 12
16 16 18 19 20 20 21 21 21 21 21 21 21 20 19 19 19 19 18 18 18 18 17 17 16 16 16 16 15 15 15 15 14 14 14 14 13 13 13 13 13 13 12 12
15 16 16 17 19 20 20 20 21 20 20 20 20 19 19 19 18 18 18 17 17 17 17 16 16 15 15 15 15 15 15 14 14 14 13 13 13 13 13 12 12 12 12 12
17 17 18 18 19 19 20 20 20 20 19 19 19 19 19 18 18 17 17 17 17 16 16 16 15 15 15 15 15 15 15 14 14 14 13 13 13 13 13 12 12 11 11 11
18 18 17 18 18 19 19 19 19 19 18 18 18 18 18 17 17 17 17 17 16 16 15 15 15 15 15 14 14 14 14 14 14 13 13 13 13 12 12 12 12 11 11 11
17 18 17 17 17 18 18 18 18 18 17 17 18 17 17 17 16 16 16 16 16 15 15 15 15 14 14 14 14 14 14 13 13 13 13 13 12 12 12 12 11 11 11 10
17 17 17 17 17 17 17 17 17 17 17 17 17 16 16 16 16 16 15 15 15 15 15 14 14 14 14 14 14 14 13 13 13 13 13 12 12 12 12 11 11 11 11 10
17 16 16 16 16 16 16 16 16 16 16 16 16 16 16 16 15 15 15 15 15 15 15 14 14 14 14 14 14 13 13 13 13 13 12 12 12 12 11 11 11 11 10 10
17 17 17 16 16 16 16 16 16 16 16 16 15 15 15 15 15 15 14 14 14 14 14 14 14 13 13 13 13 13 13 13 13 12 12 12 12 12 11 11 11 11 10 10
16 16 16 16 16 16 16 16 15 15 15 15 15 15 15 15 14 14 14 14 14 14 13 13 13 13 13 13 13 13 13 13 13 12 12 12 12 11 11 11 11 10 10 10
16 16 16 16 15 15 15 15 15 15 15 15 14 14 14 14 14 14 14 13 13 14 13 13 13 13 13 13 13 13 13 12 12 12 12 12 11 11 11 11 10 10 10 9
15 15 15 15 15 15 15 15 14 14 14 14 14 14 14 14 13 13 13 13 13 13 13 13 13 13 13 13 12 12 12 12 12 12 12 11 11 11 11 10 10 10 10 9
15 15 14 14 14 14 14 14 14 14 14 14 14 14 13 13 13 13 13 13 13 13 13 13 13 13 13 12 12 12 12 12 12 11 11 11 11 11 10 10 10 10 9 9
14 14 14 14 14 13 13 13 13 13 13 13 13 13 13 13 13 13 13 13 12 12 12 12 12 12 12 12 12 12 12 11 11 11 11 11 11 11 10 10 10 10 9 9
13 13 13 13 13 13 13 13 13 13 13 13 13 13 12 12 12 12 12 12 12 12 12 12 12 12 12 12 12 11 11 11 11 11 11 11 11 10 10 10 10 9 9 9
12 12 12 12 12 12 12 12 12 12 12 12 12 12 12 12 12 12 12 12 12 12 11 11 11 11 11 11 11 11 11 11 11 11 10 10 10 10 10 10 9 9 9 8
12 12 12 12 12 12 12 12 12 11 11 11 11 11 11 11 12 12 12 11 11 11 11 11 11 11 11 11 11 11 11 10 10 10 10 10 10 10 9 9 9 9 8 8
11 11 11 11 11 11 11 11 11 11 11 11 11 11 11 11 11 11 11 11 11 11 11 11 11 11 11 10 10 10 10 10 10 10 10 9 9 9 9 9 8 8 8 8

GEFSNGP_850_meantemp_204.txt.gz
Temperature
19 20 21 22 21 19 20 18 19 19 19 20 19 19 20 21 21 22 22 22 22 22 22 22 22 21 21 21 20 20 20 19 19 19 18 18 18 18 17 17 17 16 16 16
20 21 21 22 21 20 21 19 20 20 20 19 20 20 20 21 21 22 22 22 22 22 22 22 21 21 21 20 20 19 19 19 19 18 18 18 17 17 17 16 16 16 16 15
18 20 22 21 21 20 20 20 20 20 20 19 19 19 20 21 21 22 22 22 22 22 22 21 21 21 20 20 19 19 19 19 18 18 18 17 17 16 16 16 16 15 15 15
16 20 20 20 20 20 20 20 19 20 19 19 20 21 21 22 22 22 22 22 22 22 22 21 21 20 20 19 19 19 18 18 18 17 17 17 16 16 15 15 15 15 15 15
15 17 19 20 20 20 20 20 19 19 19 19 20 20 20 21 22 23 23 22 22 22 21 21 20 20 19 19 18 18 18 18 17 17 17 16 16 15 15 15 15 15 14 14
15 18 18 19 20 20 20 20 19 18 18 19 19 19 20 22 22 22 22 22 22 21 21 20 20 19 19 18 18 18 17 17 16 16 16 16 15 15 15 14 14 14 14 14
15 17 17 18 19 20 20 19 20 19 19 19 19 21 23 23 22 22 22 22 21 21 20 20 19 19 18 18 18 17 17 16 16 15 15 15 15 15 14 14 14 14 13 13
14 17 18 18 18 18 18 19 20 20 20 20 21 22 22 22 22 21 21 21 21 20 20 19 19 18 18 18 17 17 16 16 15 15 15 15 14 14 14 14 14 13 13 13
14 15 16 17 18 19 19 19 20 20 21 21 21 21 21 21 21 20 20 20 20 20 19 18 18 18 17 17 16 16 16 15 15 15 15 14 14 14 14 13 13 13 13 13
14 15 16 17 18 19 19 19 20 20 20 20 20 20 20 20 19 19 19 19 19 19 18 18 17 17 17 16 16 16 15 15 15 15 14 14 14 13 13 13 13 13 12 12
14 15 16 17 17 18 19 20 20 20 20 20 20 20 19 19 19 19 19 19 18 18 18 17 17 16 16 16 16 15 15 15 15 14 14 14 13 13 13 13 12 12 12 12
14 15 14 16 17 18 19 20 20 19 19 20 20 20 19 18 18 18 18 18 18 18 17 17 17 16 16 15 15 15 15 15 14 14 14 13 13 13 12 12 12 11 11 11
16 16 16 17 17 18 19 19 19 19 19 19 19 19 19 18 18 18 18 18 17 17 17 17 16 16 15 15 15 15 15 14 14 14 13 13 13 13 12 12 11 11 11 11
16 16 16 17 17 18 18 18 18 18 18 18 18 18 18 18 17 17 17 17 17 16 16 16 16 15 15 14 14 14 14 14 14 14 13 13 13 12 12 12 11 11 11 10
16 17 17 17 17 17 18 18 17 17 17 17 17 17 17 17 17 17 17 16 16 16 16 15 15 15 15 14 14 14 14 14 13 13 13 13 12 12 12 11 11 11 11 10
16 16 16 16 17 17 17 17 17 17 17 17 17 17 17 17 16 16 16 16 16 16 15 15 15 15 14 14 14 14 13 13 13 13 13 12 12 12 11 11 11 11 11 10
16 15 16 16 16 16 16 17 17 16 16 16 17 16 16 16 16 16 15 15 15 15 15 15 15 14 14 14 14 13 13 13 13 13 12 12 12 12 11 11 11 11 10 10
16 16 16 16 16 16 16 16 16 16 16 16 16 16 16 15 15 15 15 15 14 14 14 14 14 14 14 13 13 13 13 13 13 13 12 12 12 12 11 11 11 11 10 10
15 16 15 15 16 16 16 16 16 16 15 15 15 15 15 15 15 14 14 14 14 14 14 14 13 13 13 13 13 13 13 13 12 12 12 12 12 11 11 11 11 10 10 10
15 15 15 15 15 15 15 15 15 15 15 15 15 15 14 14 14 14 14 14 14 13 13 13 13 13 13 13 13 13 13 13 12 12 12 12 11 11 11 11 11 10 10 9
14 14 14 14 14 15 15 14 14 14 14 14 14 14 14 14 14 13 13 13 13 13 13 13 13 13 13 13 13 13 13 12 12 12 12 11 11 11 11 10 10 10 10 9
14 14 14 14 14 14 14 14 14 14 14 14 14 14 14 13 13 13 13 13 13 13 13 13 13 13 13 12 12 12 12 12 12 12 11 11 11 11 10 10 10 10 9 9
13 13 13 13 14 14 14 13 14 14 14 14 14 13 13 13 13 13 13 12 12 12 12 12 12 12 12 12 12 12 12 12 12 11 11 11 11 10 10 10 10 10 9 9
13 13 13 13 13 13 13 13 13 13 13 13 13 13 13 13 12 12 12 12 12 12 12 12 12 12 12 12 12 12 11 11 11 11 11 11 10 10 10 10 9 9 9 9
12 12 12 12 12 12 12 12 12 12 12 12 12 12 12 12 12 12 12 12 12 12 12 11 11 11 11 11 11 11 11 11 11 11 10 10 10 10 10 9 9 9 9 8
11 11 11 12 12 12 12 11 11 11 12 12 12 12 12 12 12 12 11 11 11 11 11 11 11 11 11 11 11 11 11 10 10 10 10 10 9 9 9 9 9 9 8 8
11 11 11 11 11 11 11 11 11 11 11 11 11 11 11 11 11 11 11 11 11 11 11 11 11 11 11 11 11 10 10 10 10 10 9 9 9 9 9 9 8 8 8 8

GEFSNGP_850_meantemp_210.txt.gz
Temperature
28 29 29 29 28 29 29 29 29 30 30 30 29 28 27 26 25 24 24 23 22 21 21 21 20 20 20 19 19 19 19 19 19 19 18 18 18 18 17 17 17 16 16 16
27 27 28 28 28 29 29 29 30 30 30 30 29 27 26 25 25 24 24 23 22 21 21 20 20 20 20 19 19 19 19 19 18 18 18 18 17 17 17 16 16 16 16 16
26 27 27 27 28 28 29 29 29 29 29 29 28 27 26 25 25 24 23 23 22 21 21 20 20 20 19 19 19 19 18 18 18 18 18 17 17 16 16 16 16 15 15 15
26 26 25 27 29 29 29 29 29 29 29 28 27 26 25 25 24 24 23 22 22 21 21 20 20 19 19 19 19 18 18 18 18 17 17 17 17 16 16 16 15 15 15 14
26 25 26 26 27 27 27 27 28 28 27 27 26 25 25 24 24 23 23 22 21 21 21 20 20 19 19 19 18 18 18 17 17 17 17 16 16 16 15 15 15 14 14 14
25 25 25 27 27 26 27 26 27 27 26 26 25 27 26 24 23 22 22 21 21 21 20 20 20 19 19 18 18 18 17 17 17 16 16 16 16 15 15 15 14 14 13 13
25 25 26 27 25 25 26 26 26 25 25 25 25 26 24 22 22 21 21 21 21 20 20 20 19 19 18 18 17 17 17 16 16 16 16 15 15 15 14 14 14 13 13 13
25 25 25 25 25 26 25 23 24 24 24 24 23 23 22 21 21 20 20 20 20 20 19 19 19 18 18 17 17 17 16 16 16 15 15 15 15 14 14 14 13 13 13 12
25 25 23 23 24 22 22 22 22 23 22 22 22 22 21 21 20 20 19 19 19 19 19 19 18 18 18 17 17 16 16 16 15 15 15 14 14 14 13 13 13 12 12 12
23 23 22 21 21 20 20 21 21 21 21 21 21 21 21 20 19 19 19 19 19 19 19 18 18 17 17 17 17 16 16 15 15 15 14 14 14 13 13 13 12 12 12 12
22 22 22 21 20 20 20 20 20 20 20 20 20 20 20 19 19 19 18 18 18 18 18 18 17 17 17 16 16 16 15 15 14 14 14 14 13 13 13 12 12 12 12 12
23 21 22 21 20 19 20 20 20 20 19 19 19 19 19 18 18 18 18 18 18 17 17 17 17 16 16 16 16 16 15 15 14 14 14 13 13 13 12 12 12 12 12 12
19 19 20 19 19 19 19 19 19 19 19 19 18 18 18 18 18 17 17 17 17 17 17 16 16 16 16 16 15 15 15 14 14 14 13 13 13 13 12 12 12 12 12 11
17 18 18 19 19 18 18 18 18 18 18 18 18 17 17 17 17 17 17 17 17 16 16 16 16 16 15 15 15 15 14 14 14 13 13 13 13 12 12 12 11 11 11 11
17 17 18 18 18 18 18 18 18 18 17 17 17 17 17 17 16 16 16 16 16 16 16 16 15 15 15 15 15 14 14 14 14 13 13 13 12 12 12 12 11 11 11 11
17 17 17 17 17 18 18 18 18 18 17 17 17 16 16 16 16 16 16 15 15 15 15 15 15 15 15 15 14 14 14 14 13 13 13 13 13 12 12 12 12 11 11 11
16 17 17 17 17 17 17 17 17 17 16 16 16 16 16 16 15 15 15 15 15 15 15 15 15 14 14 14 14 14 14 13 13 13 13 13 13 12 12 12 12 11 11 11
16 16 16 16 17 17 17 16 16 16 16 16 15 15 15 15 15 15 14 14 14 14 14 14 14 14 14 14 14 13 13 13 13 13 13 12 12 12 12 12 12 11 11 11
15 15 16 16 16 16 16 16 15 15 15 15 15 15 15 14 14 14 14 14 14 14 14 14 14 14 14 14 13 13 13 13 13 13 12 12 12 12 12 12 11 11 11 10
15 15 15 15 15 15 15 15 15 15 15 15 15 14 14 14 14 14 14 14 14 14 14 13 13 13 13 13 13 13 13 13 13 13 12 12 12 12 12 12 11 11 11 10
14 14 15 15 15 15 14 14 14 14 14 14 14 14 14 14 14 14 13 13 13 13 13 13 13 13 13 13 13 13 13 12 12 12 12 12 12 12 11 11 11 11 10 10
13 14 14 14 14 14 14 14 14 14 14 14 14 13 13 13 13 13 13 13 13 13 13 13 13 13 13 13 12 12 12 12 12 12 12 12 11 11 11 11 11 10 10 10
13 13 13 13 13 13 13 13 13 13 13 13 13 13 13 13 13 13 13 12 12 12 12 12 12 13 12 12 12 12 12 12 12 12 11 11 11 11 11 10 10 10 10 10
12 12 12 12 12 12 12 13 12 12 12 13 12 12 13 13 12 12 12 12 12 12 12 12 12 12 12 12 12 12 12 12 11 11 11 11 11 10 10 10 10 10 10 9
11 11 12 12 12 12 12 12 12 12 12 12 12 12 12 12 12 12 12 12 12 12 12 12 12 12 12 12 12 11 11 11 11 11 11 11 10 10 10 10 9 9 9 9
11 11 11 11 11 12 12 12 12 12 12 12 12 12 12 12 12 12 11 11 11 11 11 11 11 11 11 11 11 11 11 11 11 11 10 10 10 10 9 9 9 9 9 8
10 11 11 11 11 11 11 11 11 11 11 11 11 11 11 11 11 11 11 11 11 11 11 11 11 11 11 11 11 10 10 10 10 10 10 10 9 9 9 9 9 9 8 8

GEFSNGP_850_meantemp_216.txt.gz
Temperature
30 31 32 32 31 32 31 31 31 32 32 31 31 31 30 29 28 28 26 26 25 24 23 23 22 21 21 21 20 20 19 19 19 19 18 18 18 17 17 17 17 17 17 17
29 30 31 31 32 32 32 32 32 32 32 33 32 30 30 29 28 27 26 25 24 23 23 22 22 21 21 20 20 20 19 19 19 18 18 17 17 17 17 17 17 17 17 16
28 30 30 30 31 32 32 32 32 31 31 31 31 30 29 28 28 27 26 25 24 23 22 22 22 21 21 20 20 19 19 19 18 18 18 17 17 17 17 16 16 16 16 16
27 28 27 30 32 32 32 32 32 32 32 31 30 30 29 28 27 27 26 25 24 23 22 22 21 21 20 20 19 19 19 18 18 18 17 17 17 17 16 16 16 16 16 15
27 27 28 30 31 32 31 31 32 32 31 30 30 29 28 27 27 26 25 24 23 23 22 21 21 20 20 19 19 19 18 18 18 17 17 17 16 16 16 16 15 15 15 15
26 26 27 29 31 31 31 29 31 31 30 29 29 28 27 26 26 25 24 24 23 22 22 21 20 20 19 19 19 18 18 18 17 17 17 16 16 16 15 15 15 14 14 14
25 26 27 29 30 30 28 28 30 30 29 29 28 28 26 26 25 24 24 23 22 22 21 21 20 19 19 19 18 18 18 17 17 17 16 16 16 16 15 15 14 14 14 14
25 26 26 29 29 28 27 28 28 28 28 27 27 26 25 25 24 24 23 22 22 21 20 20 20 19 19 18 18 18 18 17 17 16 16 16 15 15 15 14 14 14 14 13
26 26 26 27 26 26 26 27 27 27 27 26 26 25 24 24 23 23 22 22 21 20 20 19 19 19 19 18 18 18 17 17 16 16 15 15 15 15 14 14 14 14 13 13
25 25 26 26 25 25 25 26 26 26 25 25 25 24 23 23 22 22 21 21 20 20 19 19 19 18 18 18 18 17 17 16 16 15 15 15 15 15 14 14 14 13 13 13
24 25 25 25 24 24 24 24 25 25 24 24 24 23 23 22 21 21 21 20 20 19 19 19 19 18 18 18 17 17 16 16 16 15 15 15 15 14 14 14 14 14 13 13
23 24 24 24 23 24 24 24 24 24 23 23 23 22 22 21 21 20 20 19 19 19 18 18 18 18 17 17 17 17 16 16 15 15 15 15 14 14 14 14 14 13 13 13
22 22 23 23 23 23 23 23 23 22 22 22 22 21 21 21 20 20 19 19 19 18 18 18 17 17 17 17 17 16 16 15 15 15 14 14 14 14 14 13 13 13 13 13
21 21 22 22 22 22 22 22 22 22 21 21 21 21 20 20 20 19 19 18 18 18 18 17 17 17 17 16 16 16 16 15 15 15 14 14 14 14 14 13 13 13 13 13
21 21 21 21 22 21 21 21 21 21 21 20 20 20 20 19 19 18 18 18 18 17 17 17 17 16 16 16 16 15 15 15 15 15 15 14 14 14 13 13 13 13 13 12
20 20 21 21 21 21 21 21 21 21 20 20 19 19 19 19 18 18 18 17 17 17 17 16 16 16 16 15 15 15 15 15 15 15 14 14 14 14 14 13 13 13 13 13
19 20 20 20 20 20 20 20 20 20 20 19 19 18 18 18 17 17 17 17 16 16 16 16 16 16 15 15 15 15 15 15 15 14 14 14 14 14 14 14 13 13 13 13
19 19 19 20 20 19 19 19 19 19 19 19 18 18 18 17 17 17 16 16 16 16 15 15 15 15 15 15 15 15 15 15 14 14 14 14 14 14 14 14 13 13 13 12
18 19 19 19 19 19 19 19 19 19 18 18 17 17 17 17 16 16 16 16 15 15 15 15 15 15 15 15 14 15 15 14 14 14 14 14 14 14 14 13 13 13 13 12
18 18 18 18 18 18 18 18 18 18 17 17 17 16 16 16 16 15 15 15 15 15 15 15 15 14 14 14 14 14 14 14 14 14 14 14 14 14 13 13 13 13 13 12
17 17 17 17 17 17 17 17 17 17 17 16 16 16 16 15 15 15 15 15 15 15 15 14 14 14 14 14 14 14 14 14 14 14 14 14 13 13 13 13 13 12 12 12
16 16 16 17 16 16 16 16 16 16 16 16 16 16 15 15 15 15 15 15 15 14 14 14 14 14 14 14 14 14 14 14 14 14 14 13 13 13 13 13 12 12 12 12
15 15 16 16 16 15 15 15 15 15 15 15 15 15 15 15 14 14 14 14 14 14 14 14 14 14 14 14 14 13 13 13 13 13 13 13 13 13 12 12 12 12 11 11
14 14 15 15 15 15 15 15 15 15 15 15 15 14 14 14 14 14 14 14 14 14 14 14 14 14 13 13 13 13 13 13 13 13 13 13 12 12 12 12 12 11 11 11
14 14 14 14 14 14 14 14 14 14 14 14 14 14 14 14 14 14 14 14 14 13 13 13 13 13 13 13 13 13 13 12 12 12 12 12 12 12 12 11 11 11 11 11
13 13 13 14 14 14 14 14 14 14 14 14 14 14 13 13 13 13 13 13 13 13 13 13 13 13 13 12 12 12 12 12 12 12 12 12 12 11 11 11 11 11 10 10
13 13 13 13 13 14 14 14 14 14 13 13 13 13 13 13 13 13 13 13 13 13 13 12 12 12 12 12 12 12 12 12 12 11 11 11 11 11 11 11 10 10 10 10

GEFSNGP_850_meantemp_222.txt.gz
Temperature
23 24 26 26 26 26 24 22 22 23 23 23 23 23 24 24 24 23 23 24 23 23 23 23 22 21 21 21 20 20 20 20 19 19 18 18 18 18 17 17 17 17 17 16
23 25 25 26 26 26 26 25 24 24 24 23 24 24 24 24 23 23 23 23 23 23 23 22 22 21 21 20 20 20 20 20 19 19 18 18 18 17 17 17 17 16 16 16
21 23 24 24 25 26 26 25 25 24 23 23 23 23 23 23 24 23 23 23 23 23 23 23 22 22 21 21 20 20 20 19 19 18 18 18 17 17 17 16 16 16 16 16
19 22 23 22 24 26 25 25 24 24 23 23 23 24 24 25 24 24 24 23 23 23 23 22 22 21 21 21 20 19 19 19 18 18 18 17 17 17 16 16 16 16 16 15
17 20 22 23 25 25 24 24 23 23 22 23 23 23 23 24 25 25 24 24 24 23 23 22 22 21 21 20 20 19 19 18 18 18 18 17 17 16 16 16 16 15 15 15
18 20 21 22 24 26 24 23 23 23 22 22 23 20 21 24 24 24 24 24 23 23 22 22 21 21 20 20 19 19 19 18 18 18 18 17 17 16 16 15 15 15 15 14
18 20 20 22 24 25 23 22 23 24 23 23 22 22 23 24 24 24 24 23 23 22 22 22 21 20 20 20 19 19 19 18 18 17 17 17 16 16 16 15 15 15 14 14
17 19 20 22 23 22 21 23 24 24 24 24 24 24 23 23 23 23 23 22 22 22 22 21 21 20 20 20 19 19 18 18 17 17 17 16 16 15 15 15 15 14 14 14
17 18 20 22 22 23 24 23 23 24 24 24 23 23 23 23 23 22 22 22 22 22 21 21 20 20 20 19 19 18 18 17 17 16 16 16 15 15 15 15 14 14 14 13
17 18 20 22 22 23 23 23 23 24 24 24 23 23 22 22 22 22 21 21 21 21 21 20 20 19 19 19 19 18 18 17 17 16 16 15 15 15 15 15 14 14 14 13
17 17 19 21 21 22 22 23 23 23 23 23 23 22 22 22 21 21 21 21 21 21 20 20 20 19 19 18 18 18 17 17 16 16 15 15 15 15 15 15 14 14 14 14
16 17 17 19 21 22 22 22 22 22 22 22 22 22 22 21 21 21 21 21 20 20 20 20 19 19 18 18 18 17 17 16 16 16 15 15 15 15 14 14 14 14 13 13
18 19 19 20 20 21 21 21 21 21 21 21 21 21 21 20 20 20 20 20 20 20 19 19 19 18 18 17 17 17 17 16 16 16 15 15 15 14 14 14 14 13 13 13
19 19 19 19 19 20 20 20 21 21 21 20 21 21 20 20 20 20 20 20 19 19 19 18 18 18 18 17 17 16 16 16 16 16 15 15 15 14 14 14 14 13 13 13
19 19 19 19 19 19 19 20 20 20 19 19 20 20 20 19 19 19 19 19 19 19 18 18 18 17 17 17 17 16 16 16 15 15 15 15 14 14 14 14 13 13 13 13
18 18 18 18 18 18 19 19 19 19 19 19 19 19 19 19 19 19 19 18 18 18 18 17 17 17 17 16 16 16 15 15 15 15 15 14 14 14 14 14 13 13 13 13
17 17 17 18 18 18 18 18 19 18 18 18 18 18 18 18 18 18 18 18 18 17 17 17 17 17 16 16 16 15 15 15 15 15 14 14 14 14 14 13 13 13 13 13
17 17 18 18 17 18 18 18 18 18 18 18 18 18 18 18 18 18 17 17 17 17 17 16 16 16 16 16 16 15 15 15 15 14 14 14 14 14 14 13 13 13 13 12
17 17 17 17 17 17 17 17 17 17 17 17 18 18 18 18 17 17 17 17 17 16 16 16 16 16 15 15 15 15 15 15 14 14 14 14 14 14 14 13 13 13 13 12
17 17 17 17 17 17 17 17 17 17 17 17 17 17 17 17 17 17 17 16 16 16 16 15 15 15 15 15 15 15 15 14 14 14 14 14 14 14 13 13 13 13 12 12
16 16 17 16 16 16 16 16 17 16 16 17 17 17 17 16 16 16 16 16 16 16 15 15 15 15 15 15 14 14 14 14 14 14 14 14 13 13 13 13 13 12 12 12
16 16 16 16 16 16 16 16 16 16 16 16 16 16 16 16 16 15 15 15 15 15 15 15 15 15 14 14 14 14 14 14 14 14 13 13 13 13 13 13 12 12 12 12
15 15 15 15 15 15 16 16 16 16 16 16 16 16 16 15 15 15 15 15 15 15 15 14 14 14 14 14 14 14 14 13 13 13 13 13 13 13 12 12 12 12 11 11
14 14 14 14 15 15 15 15 15 15 15 15 15 15 15 15 15 15 15 14 14 14 14 14 14 14 14 14 13 13 13 13 13 13 12 12 12 12 12 12 11 11 11 11
14 14 14 14 14 14 14 14 14 14 15 14 14 14 14 14 14 14 14 14 14 14 14 14 13 13 13 13 13 13 13 13 12 12 12 12 12 12 11 11 11 11 10 10
13 13 13 13 14 14 14 14 14 14 14 14 14 14 14 14 14 14 13 13 13 13 13 13 13 13 13 13 12 12 12 12 12 12 12 11 11 11 11 11 11 10 10 10
13 13 13 13 13 13 13 13 13 13 13 14 13 13 13 13 13 13 13 13 13 13 13 13 13 12 12 12 12 12 12 11 11 11 11 11 11 11 11 10 10 10 10 10

GEFSNGP_850_meantemp_228.txt.gz
Temperature
20 21 22 23 22 21 21 19 20 21 20 22 21 20 21 22 22 22 23 23 23 23 23 23 22 22 21 21 21 20 20 19 19 19 18 18 17 17 17 17 16 16 16 16
21 21 22 23 22 22 22 21 21 22 21 20 21 21 21 21 22 22 23 23 23 23 23 23 22 22 21 21 20 20 20 19 19 19 18 18 17 17 17 16 16 16 16 15
19 21 22 22 22 22 22 22 21 22 22 20 19 20 21 22 22 23 23 23 23 23 23 23 22 22 21 21 20 20 20 19 19 18 18 18 17 17 16 16 16 16 15 15
17 21 21 21 21 22 22 22 21 21 21 20 21 22 23 23 23 23 23 23 23 23 23 22 22 22 21 21 20 20 19 19 18 18 18 17 17 16 16 16 16 16 15 15
15 18 20 21 21 22 22 22 21 20 20 20 21 21 21 23 23 24 24 23 23 23 23 22 22 21 21 20 20 19 19 19 18 18 18 17 17 16 16 16 15 15 15 15
15 19 19 21 22 22 22 21 21 20 19 19 20 19 21 23 23 23 23 23 23 22 22 22 21 21 21 20 20 19 19 19 18 18 17 17 17 16 16 15 15 15 15 14
16 18 18 19 20 21 22 21 22 21 21 20 20 22 24 24 23 23 23 23 22 22 22 22 21 20 20 20 20 20 19 18 18 17 17 17 16 16 15 15 15 14 14 14
15 18 19 19 19 20 20 21 21 21 22 21 22 23 23 23 23 23 22 22 22 22 22 21 21 20 20 20 20 19 19 18 18 17 17 16 16 15 15 15 14 14 14 14
15 16 18 18 19 20 21 21 21 22 22 22 22 22 22 23 22 22 22 22 21 21 21 21 21 20 20 20 19 19 18 18 17 17 16 16 16 15 15 15 14 14 14 14
15 16 17 18 19 20 21 21 22 22 22 22 22 22 22 22 22 22 21 21 21 20 20 21 20 20 19 19 19 18 18 17 17 16 16 15 15 15 15 14 14 14 14 14
15 16 17 18 19 20 21 21 22 22 22 22 22 21 22 21 21 21 21 20 20 20 20 20 20 19 19 19 18 18 17 17 16 16 15 15 15 15 14 14 14 14 14 14
15 16 16 18 19 20 21 21 21 21 21 21 21 21 21 21 21 21 20 20 19 19 19 19 19 19 18 18 18 18 17 17 16 16 15 15 15 14 14 14 14 14 13 13
17 17 18 18 19 20 20 20 21 21 20 20 20 21 21 20 20 20 20 20 19 19 19 19 19 19 18 18 18 17 17 17 16 16 15 15 14 14 14 14 14 13 13 13
17 17 17 18 19 19 20 20 20 20 20 20 20 20 20 20 20 20 19 19 19 19 19 18 18 18 18 18 17 17 17 16 16 16 15 15 14 14 14 14 14 13 13 13
17 18 18 18 18 18 19 19 19 19 19 19 19 19 19 19 19 19 19 19 18 18 18 18 18 18 17 17 17 17 16 16 16 15 15 15 14 14 14 14 14 13 13 13
17 17 18 18 18 18 18 18 18 18 18 18 18 18 18 19 18 18 18 18 18 18 18 18 18 17 17 17 16 16 16 16 15 15 15 14 14 14 14 14 13 13 13 13
16 16 17 17 17 17 17 17 17 17 17 17 18 18 18 18 18 17 17 17 17 17 17 17 17 17 17 16 16 16 16 15 15 15 15 14 14 14 14 14 13 13 13 13
17 17 17 17 17 17 17 17 17 17 17 17 17 17 17 17 17 17 17 17 17 17 17 17 17 16 16 16 16 16 16 15 15 15 15 14 14 14 14 13 13 13 13 12
16 16 16 16 17 16 16 16 16 16 17 17 17 17 17 17 17 16 16 16 16 16 17 16 16 16 16 16 15 15 15 15 15 15 14 14 14 14 13 13 13 13 13 12
16 16 16 16 16 16 16 16 16 16 16 16 16 16 16 16 16 16 16 16 16 16 16 16 16 15 15 15 15 15 15 15 15 14 14 14 14 13 13 13 13 13 12 12
15 15 15 16 16 16 16 16 16 16 16 16 16 16 16 16 16 16 15 15 15 15 15 15 15 15 15 15 15 15 15 14 14 14 14 14 13 13 13 13 13 12 12 12
15 15 15 15 15 15 15 15 15 16 16 16 15 15 15 15 15 15 15 15 15 15 15 15 15 15 15 15 14 14 14 14 14 13 13 13 13 13 13 12 12 12 12 12
14 14 14 14 14 15 15 15 15 15 15 15 15 15 15 15 15 15 15 15 15 15 15 15 15 14 14 14 14 14 14 13 13 13 13 13 13 13 12 12 12 12 11 11
13 14 14 14 14 14 14 14 14 14 14 14 14 14 14 15 14 14 14 14 14 14 14 14 14 14 14 14 14 13 13 13 13 13 13 12 12 12 12 12 11 11 11 11
13 13 13 13 14 14 14 14 14 14 14 14 14 14 14 14 14 14 14 14 14 14 14 14 14 13 13 13 13 13 13 13 12 12 12 12 12 12 11 11 11 10 10 10
12 13 13 13 13 13 13 13 13 13 13 13 14 14 14 14 14 14 14 13 13 13 13 13 13 13 13 13 13 12 12 12 12 12 12 11 11 11 11 11 10 10 10 10
12 12 12 12 12 12 12 12 13 13 13 13 13 13 13 13 13 13 13 13 13 13 13 12 12 12 12 12 12 12 11 11 11 11 11 11 11 10 10 10 10 10 10 9

GEFSNGP_850_meantemp_234.txt.gz
Temperature
29 30 30 30 30 30 30 31 31 31 31 32 31 30 29 27 27 26 25 24 23 22 22 21 21 21 21 20 20 20 19 19 19 18 18 18 18 17 17 17 16 16 16 16
28 29 29 29 30 30 30 30 31 31 31 32 30 29 28 27 26 26 25 24 23 22 22 22 21 21 21 21 20 20 19 19 19 18 18 18 17 17 17 17 16 16 16 15
27 28 28 28 29 30 30 30 31 30 31 30 30 28 27 26 26 26 25 24 23 22 22 22 22 21 21 21 20 19 19 19 18 18 18 18 17 17 17 17 16 16 16 15
27 27 26 29 30 30 30 30 30 31 30 30 29 28 27 26 25 25 24 23 22 22 22 21 21 21 21 20 20 19 19 19 18 18 18 18 17 17 17 16 16 16 16 15
27 26 27 28 29 29 29 29 30 30 29 28 28 27 27 25 25 24 24 23 22 22 22 21 21 21 20 20 19 19 19 18 18 18 18 17 17 17 17 16 16 16 15 15
26 26 26 28 28 27 28 28 28 28 28 27 27 29 29 25 24 23 23 22 22 22 21 21 21 21 20 20 19 19 19 18 18 18 18 17 17 17 16 16 16 15 15 15
25 26 27 28 27 27 27 27 27 26 26 26 27 27 25 24 23 22 22 22 22 21 21 21 21 21 20 20 19 19 19 18 18 18 18 17 17 17 16 16 16 15 15 15
25 25 26 26 27 27 26 25 25 25 25 25 25 24 23 23 22 22 21 21 21 21 21 21 20 20 20 20 19 19 18 18 18 17 17 17 16 16 16 15 15 15 15 14
26 26 25 24 25 24 23 23 24 24 24 24 23 23 22 22 21 21 21 21 20 20 20 20 20 20 19 19 19 18 18 18 17 17 17 16 16 16 15 15 15 14 14 14
24 24 24 23 22 22 22 22 23 23 23 23 23 22 22 21 21 21 20 20 20 20 20 19 19 19 19 19 19 18 18 18 17 17 16 16 16 15 15 15 15 14 14 14
23 23 23 22 22 21 21 21 22 22 22 22 21 21 21 21 20 20 20 20 19 19 19 19 19 19 18 18 18 18 17 17 17 16 16 16 15 15 15 15 15 14 14 14
23 22 23 22 21 21 21 21 21 21 21 21 21 20 20 20 20 20 20 19 19 19 19 19 19 18 18 18 18 17 17 17 16 16 16 15 15 15 15 15 14 14 14 14
20 20 20 20 20 20 20 20 20 20 20 20 20 20 20 19 19 19 19 19 19 19 19 19 18 18 18 18 18 17 17 17 16 16 16 15 15 15 15 15 15 14 14 14
18 18 19 19 19 19 19 19 19 20 19 19 19 19 19 19 19 19 18 18 18 18 18 18 18 18 18 17 17 17 16 16 16 16 16 15 15 15 15 15 14 14 14 14
17 18 18 18 18 18 18 19 19 19 19 18 18 18 18 18 18 18 18 18 18 18 18 18 17 17 17 17 17 16 16 16 16 16 16 15 15 15 15 15 14 14 14 14
17 17 17 18 18 18 18 19 19 18 18 18 18 18 18 18 18 17 17 17 17 17 17 17 17 17 17 16 16 16 16 16 16 16 16 15 15 15 15 14 14 14 14 14
17 17 17 17 18 18 18 18 18 18 18 18 17 17 17 17 17 17 17 17 17 17 17 17 16 16 16 16 16 16 15 15 15 15 15 15 15 15 15 14 14 14 14 14
16 17 17 17 17 17 17 17 17 17 17 17 17 17 16 16 16 16 16 16 16 16 16 16 16 16 16 16 16 15 15 16 16 15 15 15 15 14 14 14 14 14 13 13
16 16 16 16 16 17 17 17 17 16 16 16 16 16 16 16 16 16 16 15 15 15 16 16 16 16 16 15 15 15 15 15 15 15 15 15 14 14 14 14 14 13 13 13
15 15 15 16 16 16 16 16 16 16 16 16 16 15 15 15 15 15 15 15 15 15 15 15 15 15 15 15 15 15 15 15 15 15 14 14 14 14 14 14 13 13 13 12
14 15 15 15 15 15 15 15 15 15 15 15 15 15 15 15 15 15 15 15 15 15 15 15 15 15 15 15 15 14 14 14 14 14 14 14 14 14 14 13 13 13 12 12
13 14 14 14 14 14 14 14 15 15 15 15 15 15 14 14 14 14 14 14 14 14 14 14 14 15 15 14 14 14 14 14 14 14 14 14 13 13 13 13 13 12 12 11
13 13 13 14 14 14 14 14 14 14 14 14 14 14 14 14 14 14 14 14 14 14 14 14 14 14 14 14 14 14 14 14 14 13 13 13 13 13 13 12 12 12 12 11
12 13 13 13 13 13 13 13 14 14 14 14 14 14 14 14 14 14 14 14 14 14 14 14 14 14 14 13 13 13 13 13 13 13 13 13 13 12 12 12 11 11 11 11
12 12 12 13 13 13 13 13 13 13 13 13 13 13 13 13 13 13 13 14 14 14 14 13 13 13 13 13 13 13 13 13 13 13 12 12 12 12 11 11 11 11 10 10
12 12 12 13 13 13 12 13 13 13 13 13 13 13 13 13 13 13 13 13 13 13 13 13 13 13 13 13 13 13 13 12 12 12 12 12 11 11 11 11 10 10 10 10
12 12 12 12 12 12 12 12 12 12 12 12 12 12 12 12 12 12 13 13 13 13 13 13 12 12 12 12 12 12 12 12 12 12 12 11 11 11 10 10 10 10 10 9

GEFSNGP_850_meantemp_240.txt.gz
Temperature
31 32 33 33 33 33 33 32 32 32 33 33 32 33 32 31 31 30 28 27 26 25 24 24 23 23 22 22 21 21 20 20 19 19 19 19 18 18 18 17 17 17 17 17
30 31 32 32 33 33 33 33 33 33 33 33 33 32 31 31 30 29 28 27 26 25 24 23 23 22 22 21 21 21 20 20 19 19 18 18 18 18 17 17 17 17 17 16
28 30 31 31 32 33 33 33 33 32 32 32 32 31 31 30 29 29 28 27 26 25 24 23 22 22 22 21 21 20 20 19 19 19 18 18 18 18 17 17 17 17 17 17
28 28 28 31 33 33 33 33 33 33 33 32 31 31 30 30 29 28 27 27 26 24 24 23 22 22 22 21 21 20 20 19 19 18 18 18 17 17 17 17 17 17 17 17
27 27 28 31 32 33 32 31 33 32 32 32 31 30 30 29 28 27 27 26 25 24 24 23 22 22 21 21 20 20 20 19 19 19 18 18 17 17 17 17 17 17 17 16
26 27 27 30 32 33 32 30 32 32 31 31 31 30 29 28 27 27 26 25 25 24 23 22 22 22 21 21 20 20 20 19 19 18 18 18 18 18 17 17 17 16 16 16
25 26 28 31 32 32 29 29 30 31 30 29 29 29 28 27 26 26 25 24 24 23 23 22 22 21 21 20 20 20 20 19 19 18 18 18 18 18 17 17 16 16 16 16
25 26 27 30 31 29 28 29 29 29 29 29 28 28 27 26 25 25 24 24 23 23 22 21 21 21 20 20 20 20 19 19 19 18 18 18 17 17 17 17 16 16 16 16
26 27 27 28 28 27 27 28 28 28 28 27 27 27 26 25 24 24 23 23 22 22 21 21 21 21 20 20 20 19 19 19 18 18 18 17 17 17 17 16 16 16 16 15
26 26 27 26 26 26 26 26 27 27 27 27 26 26 25 24 24 23 22 22 22 21 21 20 20 20 20 20 19 19 19 18 18 18 17 17 17 17 16 16 16 16 15 15
25 25 26 26 26 25 26 26 26 26 26 26 25 25 24 23 23 22 21 21 21 20 20 20 20 20 19 19 19 19 18 18 18 18 17 17 17 16 16 16 16 16 16 15
24 24 24 24 24 24 24 25 25 25 25 25 24 24 23 23 22 21 21 20 20 20 20 20 20 19 19 19 19 18 18 18 18 17 17 17 17 16 16 16 16 16 16 16
23 24 23 23 23 23 24 24 24 24 24 24 23 23 22 22 21 21 20 20 20 20 20 19 19 19 19 18 18 18 18 17 17 17 17 16 16 16 16 16 16 16 16 15
22 23 23 22 22 23 23 23 23 23 23 23 22 22 21 21 20 20 20 20 19 19 19 19 19 18 18 18 18 18 17 17 17 17 17 16 16 16 16 16 16 16 16 15
21 22 22 22 22 22 22 22 22 22 22 22 21 21 21 20 20 20 19 19 19 19 19 18 18 18 18 18 17 17 17 17 17 17 17 16 16 16 16 16 16 16 16 15
21 21 21 21 21 21 21 22 22 22 21 21 21 20 20 20 19 19 19 19 19 18 18 18 18 18 17 17 17 17 17 17 17 17 17 16 16 16 16 16 16 15 15 15
20 20 20 20 20 21 21 21 21 21 21 20 20 20 19 19 19 18 18 18 18 18 18 18 18 17 17 17 16 16 17 17 17 16 16 16 16 16 16 16 16 15 15 15
19 19 19 20 20 20 20 20 20 19 19 19 19 19 19 18 18 18 17 17 17 17 17 17 17 17 17 16 16 16 16 16 16 16 16 16 16 16 16 16 16 15 15 15
18 19 19 19 19 19 19 19 19 18 18 18 18 18 18 17 17 17 17 17 17 17 17 17 17 16 16 16 16 16 16 16 16 16 16 16 16 16 16 15 15 15 15 15
18 18 18 18 18 18 18 18 18 18 18 18 17 17 17 17 17 17 16 16 16 16 16 16 16 16 16 16 16 15 15 16 16 16 16 15 15 15 15 15 15 15 14 14
17 17 17 17 17 17 17 17 17 17 17 17 17 16 16 16 16 16 16 16 16 16 16 16 15 15 15 15 15 15 15 15 15 15 15 15 15 15 15 15 15 14 14 14
16 16 16 16 16 16 16 16 16 16 16 16 16 16 16 15 15 15 15 15 15 15 15 15 15 15 15 15 15 15 15 15 15 15 15 15 15 15 15 14 14 14 14 13
15 15 15 15 15 16 16 16 16 16 16 16 16 15 15 15 15 15 15 15 15 15 15 14 15 15 15 14 14 14 14 14 14 14 14 14 14 14 14 14 13 13 13 13
14 14 14 15 15 15 15 15 15 15 15 15 15 15 15 15 15 15 15 15 15 15 14 14 14 14 14 14 14 14 14 14 14 14 14 14 14 14 13 13 13 13 12 12
14 14 14 14 15 15 15 15 15 15 15 15 14 14 14 14 14 14 14 14 14 14 14 14 14 14 14 14 13 13 13 13 13 13 13 13 13 13 13 13 12 12 12 12
14 14 14 14 14 14 14 14 14 14 14 14 14 14 14 14 14 14 14 13 13 13 13 13 13 13 13 13 13 13 13 13 13 13 13 13 12 12 12 12 12 12 11 11
14 14 14 14 14 14 14 14 14 14 14 14 13 13 13 13 13 13 13 13 13 13 13 13 13 13 13 13 13 13 12 12 12 12 12 12 12 12 12 11 11 11 11 11

GEFSNGP_850_meantemp_246.txt.gz
Temperature
23 24 26 26 26 26 25 23 23 24 24 24 24 25 25 26 26 25 25 25 25 24 24 24 23 23 23 22 22 21 21 20 20 20 19 19 19 18 18 18 17 17 17 17
23 25 25 26 26 26 26 25 25 25 24 24 25 26 25 25 25 24 24 25 25 24 24 24 24 23 23 22 22 21 21 20 20 19 19 19 19 18 18 18 17 17 17 17
21 23 25 24 25 26 26 26 25 25 24 24 24 24 25 25 25 25 25 25 25 25 24 24 24 23 23 22 22 21 21 20 20 19 19 19 18 18 18 17 17 17 17 17
19 22 23 23 24 26 26 25 25 24 24 24 24 26 26 26 26 25 25 25 25 25 25 24 24 23 23 22 22 21 21 20 20 19 19 19 18 18 18 17 17 17 17 17
17 20 21 23 25 26 25 24 24 24 24 25 25 25 25 26 26 26 26 26 25 25 25 24 24 23 23 22 22 21 21 20 20 20 19 19 18 18 18 17 17 17 17 17
17 20 21 22 24 26 24 23 23 23 23 24 24 21 22 25 25 25 25 25 25 24 24 24 23 23 22 22 22 21 21 20 20 20 19 19 18 18 18 17 17 17 17 17
18 19 20 22 24 25 23 22 24 24 24 24 23 23 25 25 25 25 25 25 24 24 23 23 23 23 22 22 22 21 21 20 20 19 19 19 18 18 17 17 17 17 16 16
17 18 20 22 23 22 21 23 24 24 24 24 25 25 25 25 25 25 24 24 24 23 23 23 22 22 22 22 22 21 20 20 20 19 19 18 18 17 17 17 17 17 16 16
17 18 20 22 23 23 23 23 24 24 24 24 24 24 24 24 24 24 24 23 23 23 22 22 22 22 22 21 21 20 20 20 19 19 18 18 18 17 17 17 16 16 16 16
17 19 20 22 23 23 23 23 24 24 24 24 24 24 23 23 23 23 23 23 22 22 22 21 21 21 21 21 20 20 20 19 19 18 18 18 17 17 17 17 16 16 16 16
17 18 20 21 22 22 23 23 23 23 23 23 23 23 23 23 23 22 22 22 22 22 21 21 21 20 20 20 20 19 19 19 18 18 18 17 17 17 17 17 16 16 16 16
16 17 17 19 21 22 22 22 22 23 23 23 23 22 22 22 22 22 21 21 21 21 21 20 20 20 20 19 19 19 19 18 18 18 17 17 17 17 16 16 16 16 16 16
18 19 19 20 20 21 21 21 22 22 22 22 22 22 21 21 21 21 21 21 21 20 20 20 20 19 19 19 19 18 18 18 18 17 17 17 17 16 16 16 16 16 15 15
18 18 18 19 20 20 20 21 21 21 21 21 21 21 21 20 20 20 20 20 20 20 19 19 19 19 19 18 18 18 18 18 17 17 17 17 17 17 16 16 16 16 16 15
18 18 18 18 19 20 20 20 20 20 20 20 20 20 20 20 20 20 19 19 19 19 19 19 18 18 18 18 18 17 17 17 17 17 17 17 16 16 16 16 16 16 16 15
17 18 18 18 18 19 19 19 19 19 19 19 19 19 19 19 19 19 19 18 19 19 18 18 18 18 18 18 17 17 17 17 17 17 16 16 16 16 16 16 16 15 15 15
17 17 17 17 18 18 18 18 18 18 18 18 18 18 18 18 18 18 18 18 18 18 18 18 18 17 17 17 17 17 17 16 16 16 16 16 16 16 16 15 15 15 15 15
17 17 17 17 17 17 18 18 18 18 18 18 18 18 18 18 17 17 17 17 17 17 17 17 17 17 17 17 17 16 16 16 16 16 16 15 15 15 15 15 15 15 15 15
16 17 17 17 17 17 17 17 18 17 17 17 17 17 17 17 17 17 17 17 17 17 16 16 16 16 16 16 16 16 16 16 16 15 15 15 15 15 15 15 15 14 14 14
16 16 16 16 16 17 17 17 17 17 17 17 17 16 16 16 16 16 16 16 16 16 16 16 16 16 16 16 15 15 15 15 15 15 15 15 14 14 14 14 14 14 14 14
15 15 16 16 16 16 16 16 16 16 16 16 16 16 16 16 16 16 15 15 16 16 15 15 15 15 15 15 15 15 15 15 14 14 14 14 14 14 14 14 14 14 14 14
14 15 15 15 15 15 15 15 15 16 15 15 16 15 15 15 15 15 15 15 15 15 15 15 15 15 15 15 14 14 14 14 14 14 13 13 14 14 14 14 14 14 13 13
14 14 14 14 15 15 15 15 15 15 15 15 15 15 15 15 15 15 14 15 15 14 14 14 14 14 14 14 14 14 14 13 13 13 13 13 13 13 13 13 13 13 13 13
13 14 14 14 14 14 14 14 14 15 15 15 15 15 15 15 14 14 14 14 14 14 14 14 14 14 14 14 14 13 13 13 13 13 13 13 13 13 13 12 12 12 12 12
13 13 14 14 14 14 14 14 14 14 14 14 14 14 14 14 14 14 14 14 14 14 14 13 13 13 13 13 13 13 13 13 13 13 12 12 12 12 12 12 12 11 11 11
13 13 13 13 13 13 13 13 14 14 14 14 14 14 14 14 13 13 13 13 13 13 13 13 13 13 13 13 12 12 12 12 12 12 12 12 12 12 11 11 11 11 11 10
13 13 13 13 13 13 13 13 13 13 13 13 13 13 13 13 13 13 13 13 13 12 12 12 12 12 12 12 12 12 12 12 12 12 11 11 11 11 11 11 10 10 10 10

GEFSNGP_850_meantemp_252.txt.gz
Temperature
20 22 22 23 22 21 21 20 20 21 21 22 21 21 22 23 23 24 24 25 25 25 24 24 24 24 23 23 22 22 21 21 20 20 19 19 19 18 18 18 17 17 17 17
21 21 22 23 22 22 22 21 21 22 22 21 21 22 22 23 23 23 24 25 25 25 25 24 24 24 24 23 23 22 21 21 20 20 19 19 19 18 18 18 17 17 17 17
19 20 22 22 22 22 22 21 21 22 22 21 21 21 22 23 24 24 25 25 25 25 25 25 24 24 24 23 23 22 21 21 20 20 19 19 18 18 18 18 17 17 17 16
17 20 21 21 21 22 22 21 20 21 21 20 21 23 24 25 25 25 25 25 25 25 25 25 24 24 23 23 22 22 21 21 20 20 19 19 19 18 18 17 17 17 17 16
15 18 20 21 21 21 21 21 20 20 20 21 22 22 23 24 25 25 25 25 26 25 25 25 24 24 23 23 22 22 21 21 20 20 19 19 18 18 18 17 17 17 17 17
15 18 19 20 21 21 21 21 20 19 19 20 21 20 21 24 24 24 24 25 25 25 25 24 24 24 23 23 22 22 21 21 20 20 19 19 18 18 18 17 17 17 17 16
15 17 18 19 20 21 21 20 21 21 21 20 20 21 23 24 24 24 24 24 24 24 24 24 24 23 23 22 22 22 21 20 20 20 19 19 18 18 17 17 17 17 17 16
14 17 18 19 19 19 19 20 21 21 21 21 21 22 23 23 24 24 24 24 24 23 23 23 23 23 22 22 22 21 21 20 20 19 19 18 18 18 17 17 17 17 16 16
15 16 17 18 19 20 21 20 21 21 21 21 21 21 22 23 23 23 23 23 23 23 23 22 22 22 22 22 21 21 20 20 19 19 18 18 18 17 17 17 16 16 16 16
14 15 16 18 19 20 20 20 21 21 21 21 21 21 21 22 22 22 22 22 22 22 22 22 22 22 21 21 21 20 20 19 19 18 18 18 18 17 17 17 16 16 16 16
14 15 16 17 18 19 19 20 20 21 21 21 21 21 21 21 22 22 21 21 21 21 21 21 21 21 21 20 20 20 19 19 18 18 18 17 17 17 17 17 16 16 16 16
14 15 15 16 18 18 19 19 20 20 20 20 20 20 21 21 21 21 21 21 21 21 21 21 20 20 20 20 19 19 19 18 18 18 17 17 17 17 17 16 16 16 16 16
15 16 16 17 17 18 18 19 19 19 20 20 20 20 20 20 20 20 20 20 20 20 20 20 20 19 19 19 19 18 18 18 18 17 17 17 17 16 16 16 16 16 16 16
15 16 16 16 17 17 18 18 18 19 19 19 19 19 20 20 19 19 19 20 20 19 19 19 19 19 18 18 18 18 18 17 17 17 17 16 16 16 16 16 16 16 16 16
15 15 15 16 16 17 17 18 18 18 18 18 18 18 19 19 19 19 19 19 19 19 19 19 19 18 18 17 17 17 17 17 17 17 16 16 16 16 16 15 15 15 15 15
14 15 15 15 16 16 17 17 17 17 17 18 18 18 18 18 18 18 18 18 18 18 18 18 18 18 17 17 17 17 17 17 16 16 16 16 16 15 15 15 15 15 15 15
14 14 14 15 15 16 16 17 17 17 17 17 17 17 17 18 17 17 17 18 17 18 17 17 17 17 17 17 16 16 16 16 16 16 16 16 15 15 15 14 15 15 14 14
14 14 14 14 15 15 16 16 16 16 16 16 16 17 17 17 17 17 17 17 17 17 17 17 17 17 16 16 16 16 16 15 15 15 15 15 15 15 14 14 14 14 14 14
14 14 14 14 15 15 15 15 15 16 16 16 16 16 16 16 16 16 16 16 16 16 16 16 16 16 16 16 16 15 15 15 15 15 15 14 14 14 14 14 14 14 14 13
14 14 14 14 14 15 15 15 15 15 15 15 15 15 15 15 16 16 16 15 15 15 15 15 15 15 15 15 15 15 15 15 14 14 14 14 14 14 13 13 13 13 13 13
13 14 14 14 14 14 14 14 15 15 15 15 15 15 15 15 15 15 15 15 15 15 15 15 15 15 15 14 14 14 14 14 14 13 13 13 13 13 13 13 13 13 13 12
13 13 13 13 13 14 14 14 14 14 14 14 14 14 14 14 14 14 14 14 14 14 14 14 14 14 14 14 14 14 13 13 13 13 12 12 12 12 12 12 12 12 12 12
13 13 13 13 13 13 14 14 14 14 14 14 14 14 14 14 14 14 14 14 14 14 14 14 14 14 14 14 13 13 13 13 13 12 12 12 12 12 12 12 12 12 11 11
12 12 12 13 13 13 13 13 14 14 14 14 14 14 14 13 13 13 13 13 13 13 13 13 13 13 13 13 13 12 12 12 12 12 12 12 12 11 11 11 11 11 11 11
12 12 12 12 12 12 13 13 13 13 13 13 13 13 13 13 13 13 13 13 13 13 13 12 12 12 12 12 12 12 12 12 12 12 12 11 11 11 11 11 11 11 10 10
12 12 12 12 12 12 12 12 13 12 13 13 13 13 13 13 13 13 13 13 12 12 12 12 12 12 12 12 12 12 11 11 11 11 11 11 11 11 10 10 10 10 10 10
12 12 12 12 12 12 12 12 12 12 12 12 12 12 12 12 12 12 12 12 12 12 11 11 11 11 11 11 11 11 11 11 11 11 11 10 10 10 10 10 10 9 9 9